Simultaneous Nadir Overpasses (SNOs) Predictions

Prediction of SNOs between NOAA-20 and LANDSAT-9 Satellite Orbit:

Table of predicted SNOs for the next 14.0 days since TLE Epoch: 3/2/2024
Index Date (NOAA-20) Time (NOAA-20) Lat,Lon (NOAA-20) SZA (NOAA-20 ) Date (LANDSAT-9) Time (LANDSAT-9) Lat,Lon (LANDSAT-9) SZA (LANDSAT-9 ) Distance(km) Time Diff (sec)
1 03/03/2024 14:41:12 -70.19, 135.94 103.31 03/03/2024 14:42:05 -70.18, 136.01 103.33 2.84 53
2 03/03/2024 15:31:55 70.01, -56.48 76.50 03/03/2024 15:31:33 70.03, -56.56 76.52 3.60 22
3 03/03/2024 16:22:23 -69.19, 112.03 104.39 03/03/2024 16:21:15 -69.25, 110.02 104.23 79.84 68
4 03/06/2024 06:58:05 -70.11,-108.16 104.43 03/06/2024 06:58:36 -70.12,-108.20 104.43 2.18 31
5 03/06/2024 07:48:50 70.04, 59.25 75.49 03/06/2024 07:48:03 70.02, 59.29 75.47 3.13 47
6 03/08/2024 22:24:22 70.44,-160.23 74.89 03/08/2024 22:25:33 70.36,-159.62 74.77 24.40 71
7 03/08/2024 23:14:59 -70.09, 7.64 105.51 03/08/2024 23:15:06 -70.09, 7.62 105.51 0.77 7
8 03/09/2024 00:05:43 69.97, 175.13 74.36 03/09/2024 00:04:33 69.98, 175.12 74.38 0.87 70
9 03/11/2024 14:41:10 70.17, -44.02 73.54 03/11/2024 14:42:04 70.19, -43.99 73.55 2.16 54
10 03/11/2024 15:31:52 -70.08, 123.44 106.57 03/11/2024 15:31:34 -70.08, 123.49 106.57 2.14 18
11 03/11/2024 16:22:22 69.22, -68.00 72.52 03/11/2024 16:21:14 69.25, -69.99 72.64 78.67 68
12 03/14/2024 06:58:03 70.12, 71.83 72.43 03/14/2024 06:58:33 70.15, 71.84 72.45 3.59 30
13 03/14/2024 07:48:45 -70.02,-120.70 107.69 03/14/2024 07:48:03 -70.05,-120.67 107.66 3.33 42



Historial Predications of SNOs between NOAA-20 and LANDSAT-9
